Location: Sedan
(39.2354°N, 78.5718°W)
Time: 21:02:11
(UTC+00:00)

ISS - Pass Details

Date: 08 December 2021
Orbit: 413 x 422 km, 51.6° (Epoch: 25 January)

Event Time Altitude Azimuth Distance (km) Brightness Sun altitude
Rises 23:06:07 0° 302° (WNW) 2,381 0.7 -14.1°
Reaches altitude 10° 23:08:18 10° 294° (WNW) 1,511 -0.2 -14.5°
Maximum altitude 23:11:29 39° 224° (SW) 652 -2.3 -15.1°
Drops below altitude 10° 23:14:38 10° 155° (SSE) 1,495 -1.1 -15.7°
Enters shadow 23:16:27 - 148° (SSE) 2,210 -0.3 -16.0°
